TimeMST,TemperatureF,Dew PointF,Humidity,Sea Level PressureIn,VisibilityMPH,Wind Direction,Wind SpeedMPH,Gust SpeedMPH,PrecipitationIn,Events,Conditions,WindDirDegrees,DateUTC
12:53 AM,6.1,1.0,80,30.63,10.0,NNE,3.5,-,N/A,,Clear,30,2013-01-17 07:53:00
1:53 AM,1.9,-0.9,88,30.66,10.0,Calm,Calm,-,N/A,,Clear,0,2013-01-17 08:53:00
2:53 AM,3.0,-0.0,87,30.66,10.0,Calm,Calm,-,N/A,,Clear,0,2013-01-17 09:53:00
3:53 AM,3.0,-0.9,84,30.64,10.0,NNE,4.6,-,N/A,,Clear,20,2013-01-17 10:53:00
4:53 AM,3.0,-2.0,80,30.66,10.0,Calm,Calm,-,N/A,,Clear,0,2013-01-17 11:53:00
5:53 AM,1.9,-2.9,80,30.71,9.0,Calm,Calm,-,N/A,,Clear,0,2013-01-17 12:53:00
6:53 AM,3.0,-0.9,84,30.70,8.0,Calm,Calm,-,N/A,,Clear,0,2013-01-17 13:53:00
7:53 AM,3.0,-0.9,84,30.71,6.0,ENE,3.5,-,N/A,,Clear,70,2013-01-17 14:53:00
8:53 AM,8.1,1.9,76,30.70,9.0,Calm,Calm,-,N/A,,Clear,0,2013-01-17 15:53:00
9:53 AM,7.0,3.9,87,30.73,10.0,Calm,Calm,-,N/A,,Clear,0,2013-01-17 16:53:00
10:53 AM,8.1,3.9,83,30.71,8.0,Calm,Calm,-,N/A,,Clear,0,2013-01-17 17:53:00
11:53 AM,10.9,5.0,77,30.64,10.0,SE,3.5,-,N/A,,Clear,140,2013-01-17 18:53:00
12:53 PM,14.0,6.1,71,30.61,10.0,Calm,Calm,-,N/A,,Clear,0,2013-01-17 19:53:00
1:53 PM,15.1,5.0,64,30.59,10.0,Calm,Calm,-,N/A,,Clear,0,2013-01-17 20:53:00
2:53 PM,16.0,6.1,65,30.56,10.0,East,3.5,-,N/A,,Clear,80,2013-01-17 21:53:00
3:53 PM,17.1,6.1,62,30.55,10.0,NNE,3.5,-,N/A,,Clear,20,2013-01-17 22:53:00
4:53 PM,15.1,5.0,64,30.56,10.0,Calm,Calm,-,N/A,,Clear,0,2013-01-17 23:53:00
5:53 PM,12.0,5.0,73,30.58,10.0,Calm,Calm,-,N/A,,Clear,0,2013-01-18 00:53:00
6:53 PM,10.0,3.0,73,30.57,9.0,WSW,8.1,-,N/A,,Clear,250,2013-01-18 01:53:00
7:53 PM,8.1,3.0,80,30.57,10.0,Calm,Calm,-,N/A,,Clear,0,2013-01-18 02:53:00
8:53 PM,10.9,3.9,73,30.52,10.0,SSW,3.5,-,N/A,,Clear,210,2013-01-18 03:53:00
9:53 PM,5.0,-0.0,80,30.53,10.0,West,5.8,-,N/A,,Clear,260,2013-01-18 04:53:00
10:53 PM,5.0,-0.9,76,30.51,10.0,WSW,5.8,-,N/A,,Clear,250,2013-01-18 05:53:00
11:53 PM,3.0,-0.9,84,30.48,9.0,Calm,Calm,-,N/A,,Clear,0,2013-01-18 06:53:00